Home > Weather > Bardufoss > Past weeks

Flag for Norway Weather for the Past 2 Weeks in Bardufoss, Norway

Now
55 °F

Broken clouds.


Feels Like: 53 °F
Forecast: 43 / 57 °F
Wind: 10 mph from East

Location: Bardufoss

Current Time: Apr 29, 2016 at 4:20:57 PM

Latest Report: Apr 29, 2016 at 3:50 PM


Visibility: N/A

Pressure: 30.18 "Hg

Humidity: 44%

Dew Point: 34 °F

Location of BardufossLocation

Historic Weather in Bardufoss — Graph

°F

Bardufoss Temperature Yesterday

Maximum temperature yesterday: 55 °F (at 1:20 PM)
Minimum temperature yesterday: 34 °F (at 11:50 PM)
Average temperature yesterday: 50 °F

High & Low Weather Summary for the Past Weeks

 TemperatureHumidityPressure
High59 °F (Apr 29, 11:50 AM)100% (Apr 16, 3:50 AM)30.30 "Hg (Apr 16, 3:50 AM)
Low18 °F (Apr 19, 3:50 AM)26% (Apr 28, 2:50 PM)29.45 "Hg (Apr 15, 3:50 AM)
Average36 °F63%29.79 "Hg
* Reported Apr 14 2:20 PM — Apr 29 2:50 PM, Bardufoss, Weather by CustomWeather, © 2016

Note: Actual official high and low records may vary slightly from our data, if they occured in-between our weather recording intervals... More about our weather records

Advertising

Bardufoss Weather History for the Previous 24 Hours

Scroll right to see more
 ConditionsComfort  
Time TempWeatherWind HumidityBarometerVisibility
2:50 PM
Fri, Apr 29
57 °FScattered clouds.10 mph44%30.21 "HgN/A
2:20 PM55 °FScattered clouds.12 mph47%30.21 "HgN/A
1:50 PM57 °FScattered clouds.16 mph48%30.21 "HgN/A
1:20 PM55 °FScattered clouds.15 mph51%30.21 "HgN/A
12:50 PM55 °FScattered clouds.18 mph51%30.21 "HgN/A
12:20 PM57 °FScattered clouds.18 mph51%30.21 "HgN/A
11:50 AM59 °FScattered clouds.16 mph51%30.21 "HgN/A
11:20 AM57 °FScattered clouds.18 mph55%30.21 "HgN/A
10:50 AM57 °FScattered clouds.13 mph55%30.21 "HgN/A
10:20 AM57 °FScattered clouds.15 mph55%30.21 "HgN/A
9:50 AM55 °FScattered clouds.9 mph59%30.21 "HgN/A
9:20 AM54 °FScattered clouds.5 mph58%30.24 "HgN/A
8:50 AM52 °FScattered clouds.8 mph62%30.24 "HgN/A
8:20 AM45 °FScattered clouds.5 mph61%30.24 "HgN/A
7:50 AM43 °FScattered clouds.2 mph61%30.27 "HgN/A
7:20 AM39 °FScattered clouds.2 mph65%30.27 "HgN/A
6:50 AM36 °FScattered clouds.2 mph70%30.27 "HgN/A
6:20 AM36 °FScattered clouds.1 mph65%30.27 "HgN/A
5:50 AM32 °FScattered clouds.1 mph75%30.27 "HgN/A
5:20 AM32 °FScattered clouds.2 mph75%30.27 "HgN/A
4:50 AM32 °FPassing clouds.3 mph75%30.27 "HgN/A
4:20 AM30 °FPassing clouds.2 mph80%30.30 "HgN/A
3:50 AM30 °FChilly.2 mph86%30.30 "HgN/A
2:50 AM30 °FChilly.1 mph80%30.30 "HgN/A
2:20 AM30 °FChilly.2 mph80%30.30 "HgN/A
1:50 AM30 °FChilly.1 mph86%30.30 "HgN/A
12:50 AM30 °FChilly.1 mph86%30.30 "HgN/A
12:20 AM32 °FChilly.3 mph80%30.30 "HgN/A
11:50 PM
Thu, Apr 28
34 °FPassing clouds.2 mph81%30.30 "HgN/A
10:50 PM36 °FClear.1 mph75%30.30 "Hg10 mi
9:50 PM45 °FSunny.3 mph46%30.30 "Hg10 mi
8:50 PM50 °FPassing clouds.3 mph37%30.30 "HgN/A
7:50 PM52 °FSunny.7 mph35%30.27 "Hg10 mi
6:50 PM54 °FSunny.5 mph35%30.27 "Hg10 mi
6:20 PM55 °FPassing clouds.5 mph33%30.27 "HgN/A
5:50 PM55 °FPassing clouds.3 mph31%30.24 "HgN/A
5:20 PM55 °FSunny.7 mph31%30.24 "Hg10 mi
4:50 PM55 °FSunny.8 mph28%30.24 "Hg10 mi
4:20 PM55 °FSunny.10 mph28%30.24 "Hg10 mi
Weather by CustomWeather, © 2016

See weather overviewHow to use our weather pages